CZ-4 DEB, 26175

Orbit data source: Space-Track

CZ-4 DEB, 26175 is space debris in SSO originally from a launch on Thu, 14 Oct 1999 UTC launched from the Taiyaun Space Center, China (TSC). Debris objects in space refer to the collection of defunct objects orbiting the Earth. Examples of debris include non-operational satellites, rocket bodies, and fragments generated from explosions, collisions, or faulty payload assembly.

Loading next visibility...
Identifier
26175, 1999-057BM
Orbit
SSO
Country
Flag of CNCN / PRC
Related business
Manufacturer
Unknown
Mission
Spacecraft
Bus & Motor
Unknown
Mass
Unknown
Launch date (UTC)
1999-10-14 (26 years ago)
Launch vehicle
Unknown
Launch site
Taiyaun Space Center, China (TSC)
Object type
Payload
Rocket body
Debris
Shape & HBR
Unknown shape, 0.1 m
Radar Cross Section
Small (<0.1 m²)

Expand to show TLE details & history
Last TLE update: 15 hours ago

TLE from 15 hours ago
0 CZ-4 DEB
1 26175U 99057BM  26038.05645577  .00000450  00000-0  31307-3 0  9995
2 26175  98.7546 260.5470 0332721 110.4439 253.2768 13.79271072301114
Epoch: 2026-02-07T01:21Z
TLE epoch observation values (Epoch: 2026-02-07T01:21:17.778Z)
Latitude
-0.00002°
Longitude
103.03747°
Altitude
1,047.016 km
Speed
7.29 km/s
True Right ascension
17h 22m 11s
True Declination
0° 00' 00"
Sunlit
Object was in daylight at epoch
Visualization orbit readout
Latitude
Unknown
Longitude
Unknown
Altitude
Unknown
Speed
Unknown
Apparent Right ascension
Unknown
Apparent Declination
Unknown
Sunlit
N/A
Visualization observer readout
Local Sidereal Time
18:13:31
Azimuth
Unknown
Elevation
Unknown
Doppler factor
Unknown
Orbital elements
Apogee altitude
1,207.962 km
Perigee altitude
719.406 km
Semi-major axis
7,341.821 km
Eccentricity
0.03327
Inclination
98.7546°
RAAN
260.547°
Arg. of periapsis
110.4439°
True anomaly
249.67093°
Mean anomaly
253.2768°
Eccentric anomaly
251.46929°
Mean motion
3.45015 °/min
Orbital period
104.34 mins
BSTAR
0.00031307
Loading maneuver chart data...
Computing Atmospheric mass density...
Loading historical data...
Loading historical data...
Loading historical data...
Loading historical data...
Loading historical data...
Loading historical data...
Loading historical data...

Documentation

Showing up to 5 results
|